| time (UTC) | temp F | wind direction | speed MPH | gust MPH | rain 1hr in | rain 24hr in | rain mn in | humidity % | barometer mb |
| 20260902130545 | 80 | 203 | 2.0 | 3.0 | 0.00 | 0.00 | 0.00 | 84 | 1020.0 |
| 20260902125525 | 78 | 0.0 | 0.0 | 0.00 | 0.00 | 0.00 | 91 | 1020.0 | |
| 20260902124526 | 76 | 0.0 | 0.0 | 0.00 | 0.00 | 0.00 | 96 | 1020.1 | |
| 20260902123525 | 74 | 0.0 | 0.0 | 0.00 | 0.00 | 0.00 | 97 | 1020.1 | |
| 20260902122526 | 74 | 0.0 | 0.0 | 0.00 | 0.00 | 0.00 | 98 | 1020.0 | |
| 20260902121525 | 73 | 0.0 | 0.0 | 0.00 | 0.00 | 0.00 | 99 | 1019.9 | |
| 20260902120525 | 71 | 0.0 | 0.0 | 0.00 | 0.00 | 0.00 | 99 | 1019.8 | |
| 20260902115526 | 70 | 0.0 | 0.0 | 0.00 | 0.00 | 0.00 | 99 | 1019.6 | |
| 20260902114525 | 69 | 0.0 | 0.0 | 0.00 | 0.00 | 0.00 | 99 | 1019.5 | |
| 20260902113526 | 69 | 0.0 | 0.0 | 0.00 | 0.00 | 0.00 | 99 | 1019.4 | |
| 20260902112525 | 69 | 0.0 | 0.0 | 0.00 | 0.00 | 0.00 | 99 | 1019.3 | |
| 20260902111525 | 69 | 0.0 | 0.0 | 0.00 | 0.00 | 0.00 | 99 | 1019.2 | |
| 20260902110525 | 69 | 0.0 | 0.0 | 0.00 | 0.00 | 0.00 | 99 | 1019.2 | |
| 20260902105526 | 69 | 0.0 | 0.0 | 0.00 | 0.00 | 0.00 | 99 | 1019.2 | |
| 20260902104626 | 69 | 0.0 | 0.0 | 0.00 | 0.00 | 0.00 | 99 | 1019.2 | |
| 20260902103526 | 69 | 0.0 | 0.0 | 0.00 | 0.00 | 0.00 | 99 | 1019.1 | |
| 20260902102545 | 69 | 0.0 | 0.0 | 0.00 | 0.00 | 0.00 | 99 | 1019.1 | |
| 20260902101605 | 69 | 0.0 | 0.0 | 0.00 | 0.00 | 0.00 | 99 | 1019.1 | |
| 20260902100526 | 69 | 0.0 | 0.0 | 0.00 | 0.00 | 0.00 | 99 | 1019.1 | |
| 20260902095525 | 69 | 0.0 | 0.0 | 0.00 | 0.00 | 0.00 | 99 | 1019.0 | |
| 20260902094525 | 69 | 0.0 | 0.0 | 0.00 | 0.00 | 0.00 | 99 | 1018.9 | |
| 20260902093526 | 69 | 0.0 | 0.0 | 0.00 | 0.00 | 0.00 | 99 | 1018.9 | |
| 20260902092525 | 69 | 0.0 | 0.0 | 0.00 | 0.00 | 0.00 | 99 | 1018.9 | |
| 20260902091526 | 70 | 0.0 | 0.0 | 0.00 | 0.00 | 0.00 | 99 | 1018.9 | |
| 20260902090525 | 69 | 0.0 | 0.0 | 0.00 | 0.00 | 0.00 | 99 | 1018.7 | |
| 20260902085526 | 70 | 0.0 | 0.0 | 0.00 | 0.00 | 0.00 | 99 | 1018.8 | |
| 20260902084526 | 70 | 0.0 | 0.0 | 0.00 | 0.00 | 0.00 | 99 | 1018.7 | |
| 20260902083525 | 70 | 0.0 | 0.0 | 0.00 | 0.00 | 0.00 | 99 | 1018.6 | |
| 20260902082526 | 70 | 0.0 | 0.0 | 0.00 | 0.00 | 0.00 | 99 | 1018.4 | |
| 20260902081526 | 70 | 0.0 | 0.0 | 0.00 | 0.00 | 0.00 | 99 | 1018.3 | |
| 20260902080526 | 70 | 0.0 | 0.0 | 0.00 | 0.00 | 0.00 | 99 | 1018.3 | |
| 20260902075607 | 70 | 0.0 | 0.0 | 0.00 | 0.00 | 0.00 | 99 | 1018.3 | |
| 20260902074526 | 70 | 0.0 | 0.0 | 0.00 | 0.00 | 0.00 | 98 | 1018.3 | |
| 20260902073526 | 70 | 0.0 | 0.0 | 0.00 | 0.00 | 0.00 | 98 | 1018.3 | |
| 20260902072526 | 70 | 0.0 | 0.0 | 0.00 | 0.00 | 0.00 | 98 | 1018.3 | |
| 20260902071526 | 71 | 0.0 | 0.0 | 0.00 | 0.00 | 0.00 | 98 | 1018.3 | |
| 20260902070526 | 71 | 0.0 | 0.0 | 0.00 | 0.00 | 0.00 | 98 | 1018.4 | |
| 20260902065527 | 71 | 0.0 | 0.0 | 0.00 | 0.00 | 0.00 | 98 | 1018.4 | |
| 20260902064526 | 71 | 0.0 | 0.0 | 0.00 | 0.00 | 0.00 | 98 | 1018.4 | |
| 20260902063526 | 71 | 0.0 | 0.0 | 0.00 | 0.00 | 0.00 | 98 | 1018.4 | |
| 20260902062526 | 71 | 0.0 | 0.0 | 0.00 | 0.00 | 0.00 | 98 | 1018.4 | |
| 20260902061526 | 71 | 0.0 | 0.0 | 0.00 | 0.00 | 0.00 | 98 | 1018.4 | |
| 20260902060526 | 71 | 0.0 | 0.0 | 0.00 | 0.00 | 0.00 | 98 | 1018.4 | |
| 20260902055526 | 71 | 0.0 | 0.0 | 0.00 | 0.00 | 0.00 | 98 | 1018.4 | |
| 20260902054526 | 71 | 0.0 | 0.0 | 0.00 | 0.00 | 0.00 | 98 | 1018.4 | |
| 20260902053547 | 71 | 0.0 | 0.0 | 0.00 | 0.00 | 0.00 | 98 | 1018.3 | |
| 20260902052526 | 72 | 0.0 | 0.0 | 0.00 | 0.00 | 0.00 | 97 | 1018.4 | |
| 20260902051526 | 72 | 0.0 | 0.0 | 0.00 | 0.00 | 0.00 | 97 | 1018.3 | |
| 20260902050547 | 72 | 0.0 | 0.0 | 0.00 | 0.00 | 0.00 | 97 | 1018.4 | |
| 20260902045606 | 72 | 0.0 | 0.0 | 0.00 | 0.00 | 0.00 | 97 | 1018.3 | |
| 20260902044526 | 72 | 0.0 | 0.0 | 0.00 | 0.00 | 0.00 | 97 | 1018.3 | |
| 20260902043547 | 73 | 0.0 | 0.0 | 0.00 | 0.00 | 0.00 | 97 | 1018.4 | |
| 20260902042526 | 73 | 0.0 | 0.0 | 0.00 | 0.00 | 0.00 | 97 | 1018.4 | |
| 20260902041526 | 73 | 0.0 | 0.0 | 0.00 | 0.00 | 0.00 | 97 | 1018.4 | |
| 20260902040547 | 73 | 0.0 | 0.0 | 0.00 | 0.00 | 0.00 | 96 | 1018.4 | |
| 20260902035546 | 73 | 0.0 | 0.0 | 0.00 | 0.00 | 0.00 | 96 | 1018.5 | |
| 20260902034526 | 73 | 0.0 | 0.0 | 0.00 | 0.00 | 0.00 | 96 | 1018.4 | |
| 20260902033526 | 73 | 0.0 | 0.0 | 0.00 | 0.00 | 0.00 | 96 | 1018.4 | |
| 20260902032526 | 74 | 0.0 | 0.0 | 0.00 | 0.00 | 0.00 | 96 | 1018.4 | |
| 20260902031547 | 74 | 0.0 | 0.0 | 0.00 | 0.00 | 0.00 | 96 | 1018.4 | |
| 20260902030526 | 74 | 0.0 | 0.0 | 0.00 | 0.00 | 0.00 | 95 | 1018.4 | |
| 20260902025526 | 74 | 0.0 | 0.0 | 0.00 | 0.00 | 0.00 | 95 | 1018.4 | |
| 20260902024527 | 75 | 0.0 | 0.0 | 0.00 | 0.00 | 0.00 | 95 | 1018.4 | |
| 20260902023526 | 75 | 0.0 | 0.0 | 0.00 | 0.00 | 0.00 | 95 | 1018.4 | |
| 20260902022527 | 75 | 0.0 | 0.0 | 0.00 | 0.00 | 0.00 | 95 | 1018.4 | |
| 20260902021526 | 76 | 0.0 | 0.0 | 0.00 | 0.00 | 0.00 | 94 | 1018.4 | |
| 20260902020526 | 76 | 0.0 | 0.0 | 0.00 | 0.00 | 0.00 | 94 | 1018.4 | |
| 20260902015547 | 76 | 0.0 | 0.0 | 0.00 | 0.00 | 0.00 | 93 | 1018.4 | |
| 20260902014546 | 76 | 0.0 | 0.0 | 0.00 | 0.00 | 0.00 | 93 | 1018.3 | |
| 20260902013527 | 77 | 0.0 | 0.0 | 0.00 | 0.00 | 0.00 | 92 | 1018.3 | |
| 20260902012527 | 77 | 0.0 | 0.0 | 0.00 | 0.00 | 0.00 | 92 | 1018.1 | |
| 20260902011527 | 78 | 0.0 | 0.0 | 0.00 | 0.00 | 0.00 | 92 | 1018.0 | |
| 20260902010527 | 79 | 0.0 | 0.0 | 0.00 | 0.00 | 0.00 | 92 | 1017.9 | |
| 20260902005547 | 79 | 0.0 | 0.0 | 0.00 | 0.00 | 0.00 | 90 | 1017.8 | |
| 20260902004537 | 79 | 0.0 | 0.0 | 0.00 | 0.00 | 0.00 | 89 | 1017.7 | |
| 20260902003627 | 80 | 0.0 | 0.0 | 0.00 | 0.00 | 0.00 | 88 | 1017.6 | |
| 20260902002527 | 82 | 200 | 1.0 | 2.0 | 0.00 | 0.00 | 0.00 | 87 | 1017.7 |
| 20260902001637 | 83 | 216 | 0.0 | 2.0 | 0.00 | 0.00 | 0.00 | 85 | 1017.8 |
| 20260902000527 | 84 | 0.0 | 0.0 | 0.00 | 0.00 | 0.00 | 83 | 1017.9 | |
| 20260901235526 | 83 | 182 | 1.0 | 2.0 | 0.00 | 0.00 | 0.00 | 83 | 1017.9 |
| 20260901234537 | 86 | 0.0 | 1.0 | 0.00 | 0.00 | 0.00 | 75 | 1017.9 | |
| 20260901233607 | 88 | 0.0 | 0.0 | 0.00 | 0.00 | 0.00 | 73 | 1018.1 | |
| 20260901232527 | 89 | 0.0 | 0.0 | 0.00 | 0.00 | 0.00 | 71 | 1018.1 | |
| 20260901231527 | 91 | 0.0 | 0.0 | 0.00 | 0.00 | 0.00 | 68 | 1018.1 | |
| 20260901230537 | 93 | 0.0 | 0.0 | 0.00 | 0.00 | 0.00 | 63 | 1018.1 | |
| 20260901225548 | 94 | 0.0 | 0.0 | 0.00 | 0.00 | 0.00 | 60 | 1018.0 | |
| 20260901224537 | 94 | 0.0 | 0.0 | 0.00 | 0.00 | 0.00 | 62 | 1017.9 | |
| 20260901223607 | 95 | 314 | 0.0 | 1.0 | 0.00 | 0.00 | 0.00 | 59 | 1018.0 |
| 20260901222527 | 92 | 242 | 1.0 | 3.0 | 0.00 | 0.00 | 0.00 | 62 | 1018.0 |
| 20260901221547 | 97 | 209 | 2.0 | 4.0 | 0.00 | 0.00 | 0.00 | 57 | 1017.9 |
| 20260901220537 | 97 | 223 | 2.0 | 5.0 | 0.00 | 0.00 | 0.00 | 56 | 1017.9 |
| 20260901215607 | 96 | 256 | 1.0 | 2.0 | 0.00 | 0.00 | 0.00 | 57 | 1017.8 |
| 20260901214528 | 96 | 246 | 1.0 | 3.0 | 0.00 | 0.00 | 0.00 | 58 | 1017.8 |
| 20260901213607 | 96 | 238 | 2.0 | 4.0 | 0.00 | 0.00 | 0.00 | 57 | 1017.8 |
| 20260901212547 | 95 | 214 | 4.0 | 6.0 | 0.00 | 0.00 | 0.00 | 56 | 1017.9 |
| 20260901211537 | 94 | 219 | 5.0 | 8.0 | 0.00 | 0.00 | 0.00 | 57 | 1017.9 |
| 20260901210527 | 94 | 216 | 4.0 | 6.0 | 0.00 | 0.00 | 0.00 | 58 | 1017.9 |
| 20260901205527 | 94 | 217 | 5.0 | 8.0 | 0.00 | 0.00 | 0.00 | 56 | 1018.1 |
| 20260901204547 | 93 | 229 | 6.0 | 10.0 | 0.00 | 0.00 | 0.00 | 55 | 1018.2 |
| 20260901203537 | 92 | 231 | 5.0 | 6.0 | 0.00 | 0.00 | 0.00 | 57 | 1018.2 |
| 20260901202558 | 92 | 218 | 8.0 | 11.0 | 0.00 | 0.00 | 0.00 | 56 | 1018.2 |
| 20260901201548 | 94 | 232 | 4.0 | 5.0 | 0.00 | 0.00 | 0.00 | 55 | 1018.2 |
| 20260901200528 | 94 | 212 | 6.0 | 9.0 | 0.00 | 0.00 | 0.00 | 58 | 1018.2 |
| 20260901195527 | 93 | 230 | 6.0 | 8.0 | 0.00 | 0.00 | 0.00 | 58 | 1018.3 |
| 20260901194607 | 93 | 216 | 7.0 | 11.0 | 0.00 | 0.00 | 0.00 | 58 | 1018.3 |
| 20260901193548 | 91 | 200 | 6.0 | 10.0 | 0.00 | 0.00 | 0.00 | 59 | 1018.5 |
| 20260901192540 | 91 | 233 | 5.0 | 9.0 | 0.00 | 0.00 | 0.00 | 58 | 1018.6 |
| 20260901191539 | 90 | 201 | 7.0 | 10.0 | 0.00 | 0.00 | 0.00 | 60 | 1018.8 |
| 20260901190558 | 90 | 224 | 4.0 | 6.0 | 0.00 | 0.00 | 0.00 | 62 | 1018.8 |
| 20260901185528 | 90 | 214 | 7.0 | 10.0 | 0.00 | 0.00 | 0.00 | 62 | 1018.9 |
| 20260901184609 | 90 | 216 | 6.0 | 10.0 | 0.00 | 0.00 | 0.00 | 62 | 1019.1 |
| 20260901183538 | 90 | 215 | 5.0 | 6.0 | 0.00 | 0.00 | 0.00 | 63 | 1019.2 |
| 20260901182528 | 89 | 210 | 7.0 | 10.0 | 0.00 | 0.00 | 0.00 | 61 | 1019.2 |
| 20260901181551 | 89 | 218 | 8.0 | 10.0 | 0.00 | 0.00 | 0.00 | 62 | 1019.2 |
| 20260901180549 | 89 | 217 | 6.0 | 10.0 | 0.00 | 0.00 | 0.00 | 61 | 1019.3 |
| 20260901175648 | 89 | 200 | 8.0 | 10.0 | 0.00 | 0.00 | 0.00 | 64 | 1019.3 |
| 20260901174539 | 88 | 232 | 6.0 | 10.0 | 0.00 | 0.00 | 0.00 | 64 | 1019.3 |
| 20260901173518 | 89 | 228 | 6.0 | 13.0 | 0.00 | 0.00 | 0.00 | 64 | 1019.5 |
| 20260901172538 | 88 | 225 | 6.0 | 11.0 | 0.00 | 0.00 | 0.00 | 64 | 1019.6 |
| 20260901171518 | 90 | 220 | 6.0 | 9.0 | 0.00 | 0.00 | 0.00 | 66 | 1019.6 |
| 20260901170548 | 89 | 228 | 6.0 | 13.0 | 0.00 | 0.00 | 0.00 | 65 | 1019.6 |
| 20260901165608 | 87 | 209 | 5.0 | 8.0 | 0.00 | 0.00 | 0.00 | 67 | 1019.7 |
| 20260901164618 | 87 | 203 | 7.0 | 10.0 | 0.00 | 0.00 | 0.00 | 69 | 1019.7 |
| 20260901163538 | 88 | 202 | 6.0 | 11.0 | 0.00 | 0.00 | 0.00 | 69 | 1019.8 |
| 20260901162538 | 87 | 258 | 4.0 | 6.0 | 0.00 | 0.00 | 0.00 | 71 | 1020.0 |
| 20260901161518 | 86 | 245 | 5.0 | 10.0 | 0.00 | 0.00 | 0.00 | 69 | 1020.0 |
| 20260901160539 | 85 | 210 | 7.0 | 10.0 | 0.00 | 0.00 | 0.00 | 71 | 1020.1 |
| 20260901155518 | 86 | 200 | 7.0 | 9.0 | 0.00 | 0.00 | 0.00 | 70 | 1020.2 |
| 20260901154539 | 85 | 228 | 5.0 | 7.0 | 0.00 | 0.00 | 0.00 | 73 | 1020.2 |
| 20260901153558 | 85 | 200 | 6.0 | 8.0 | 0.00 | 0.00 | 0.00 | 76 | 1020.3 |
| 20260901152518 | 85 | 266 | 4.0 | 7.0 | 0.00 | 0.00 | 0.00 | 73 | 1020.2 |
| 20260901151528 | 83 | 221 | 6.0 | 8.0 | 0.00 | 0.00 | 0.00 | 76 | 1020.2 |
| 20260901150608 | 85 | 231 | 5.0 | 9.0 | 0.00 | 0.00 | 0.00 | 74 | 1020.2 |
| 20260901145648 | 84 | 269 | 5.0 | 9.0 | 0.00 | 0.00 | 0.00 | 76 | 1020.2 |
| 20260901144609 | 84 | 219 | 5.0 | 8.0 | 0.00 | 0.00 | 0.00 | 76 | 1020.1 |
| 20260901143538 | 83 | 220 | 5.0 | 7.0 | 0.00 | 0.00 | 0.00 | 78 | 1020.1 |
| 20260901142539 | 81 | 208 | 7.0 | 8.0 | 0.00 | 0.00 | 0.00 | 81 | 1020.1 |
| 20260901141539 | 81 | 214 | 6.0 | 7.0 | 0.00 | 0.00 | 0.00 | 80 | 1020.3 |
| 20260901140528 | 81 | 191 | 6.0 | 7.0 | 0.00 | 0.00 | 0.00 | 80 | 1020.3 |
| 20260901135608 | 81 | 197 | 4.0 | 6.0 | 0.00 | 0.00 | 0.00 | 82 | 1020.4 |
| 20260901134558 | 78 | 202 | 5.0 | 8.0 | 0.00 | 0.00 | 0.00 | 85 | 1020.5 |
| 20260901133618 | 79 | 211 | 4.0 | 5.0 | 0.00 | 0.00 | 0.00 | 83 | 1020.5 |
| 20260901132638 | 78 | 226 | 2.0 | 5.0 | 0.00 | 0.00 | 0.00 | 84 | 1020.4 |
| 20260901131528 | 77 | 232 | 4.0 | 6.0 | 0.00 | 0.00 | 0.00 | 86 | 1020.4 |